Location: Fort Lauderdale
(26.1220°N, 80.1440°W)
Time: 14:20:49
(UTC-04:00)

N. Korean satellite - Visible Passes

Search period start: 23 March 2019 00:00
Search period end: 02 April 2019 00:00
Orbit: 456 x 510 km, 97.2° (Epoch: 22 March)

Date Brightness Start Highest point End Pass type
(mag) Time Alt. Az. Time Alt. Az. Time Alt. Az.
23 Mar 9.8 06:38:35 10° NE 06:41:06 18° E 06:43:38 10° SE visible
26 Mar 8.6 06:56:45 10° NNE 07:00:05 34° E 07:03:25 10° SSE visible
27 Mar 9.9 06:33:02 10° ENE 06:35:12 15° E 06:37:23 10° SE visible
30 Mar 9.1 06:50:58 10° NE 06:54:09 28° E 06:57:22 10° SSE visible
31 Mar 10.1 06:27:34 10° ENE 06:29:15 13° E 06:30:57 10° ESE visible
